Hourly Data Report for November 27, 2003

TORONTO CITY
ONTARIO

43°40'00.000" N
79°24'00.000" W
112.50 m
6158355
71508
XTO

Download Data

Hourly Data (November 2003)
Hourly Data Report for November 27, 2003
TIME
LST
Temp Definition
°C
Dew Point Definition
°C
Rel Hum Definition
%
Precip. Amount Definition
mm

Wind Dir Definition
10's deg

Wind Spd Definition
km/h
Visibility Definition
km
Stn Press Definition
kPa
Hmdx Definition


Wind Chill Definition


Weather Definition


00:00 4.0 0.7 79   LegendMM LegendMM LegendMM 100.75     LegendNANA
01:00 3.7 1.4 85   LegendMM LegendMM LegendMM 100.77     LegendNANA
02:00 4.1 1.3 82   LegendMM LegendMM LegendMM 100.72     LegendNANA
03:00 3.7 1.9 88   LegendMM LegendMM LegendMM 100.80     LegendNANA
04:00 4.1 2.8 91   LegendMM LegendMM LegendMM 100.78     LegendNANA
05:00 4.3 3.4 94   LegendMM LegendMM LegendMM 100.73     LegendNANA
06:00 4.4 3.4 93   LegendMM LegendMM LegendMM 100.76     LegendNANA
07:00 4.5 2.9 89   LegendMM LegendMM LegendMM 100.72     LegendNANA
08:00 4.8 3.2 89   LegendMM LegendMM LegendMM 100.66     LegendNANA
09:00 5.4 3.6 88   LegendMM LegendMM LegendMM 100.66     LegendNANA
10:00 5.7 3.1 83   LegendMM LegendMM LegendMM 100.62     LegendNANA
11:00 6.0 3.2 82   LegendMM LegendMM LegendMM 100.57     LegendNANA
12:00 5.7 3.2 84   LegendMM LegendMM LegendMM 100.45     LegendNANA
13:00 5.5 3.8 89   LegendMM LegendMM LegendMM 100.39     LegendNANA
14:00 5.0 4.0 93   LegendMM LegendMM LegendMM 100.34     LegendNANA
15:00 4.9 4.3 96   LegendMM LegendMM LegendMM 100.31     LegendNANA
16:00 4.7 4.3 97   LegendMM LegendMM LegendMM 100.26     LegendNANA
17:00 4.9 4.6 98   LegendMM LegendMM LegendMM 100.18     LegendNANA
18:00 5.2 4.9 98   LegendMM LegendMM LegendMM 100.18     LegendNANA
19:00 5.4 5.1 98   LegendMM LegendMM LegendMM 100.17     LegendNANA
20:00 5.6 5.2 97   LegendMM LegendMM LegendMM 100.10     LegendNANA
21:00 5.7 5.4 98   LegendMM LegendMM LegendMM 100.07     LegendNANA
22:00 5.9 5.5 97   LegendMM LegendMM LegendMM 99.99     LegendNANA
23:00 5.8 5.5 98   LegendMM LegendMM LegendMM 100.02     LegendNANA

Notes on Data Quality.

Legend

  • E = Estimated
  • M = Missing
  • NA = Not Available*
  • [empty] = Indicates an unobserved value
Date modified: